{"data":{"norad_id":52939,"intl_designator":"2022-072E","name":"POEM","alt_names":[],"object_type":"PAYLOAD","status":"ACTIVE","operator":null,"country":"IND","launch_date":"2022-06-30","launch_site_code":"SRILR","launch_vehicle":null,"mission":null,"orbit_class":"UNKNOWN","rcs_meters":null,"size_class":null,"mass_kg":null,"dimensions":null,"purposes":[],"wikipedia_slug":null,"has_3d_model":false,"image_url":null,"decayed_at":null,"tle_current":{"epoch":"2026-09-19T20:55:40.039680Z","epoch_age_seconds":188880,"freshness":"STALE","line1":"1 52939U 22072E   26262.87199120  .00005611  00000+0  17913-3 0  9992","line2":"2 52939   9.9514  70.3279 0022534 168.3395 191.7344 15.25022289233987","mean_motion":15.25022289,"eccentricity":0.0022534,"inclination_deg":9.9514,"raan_deg":70.3279,"arg_perigee_deg":168.3395,"mean_anomaly_deg":191.7344,"bstar":0.00017913,"rev_number":23398,"period_min":94.424849419365,"perigee_km":475.24022600013,"apogee_km":506.19678399005,"semimajor_km":6868.8555049951,"source":"CELESTRAK","updated_at":"2026-09-21T09:00:08.763644Z"}}}